Simultaneous Nadir Overpasses (SNOs) Predictions

Prediction of SNOs between LANDSAT-8 and METOP-B Satellite Orbit:

Table of predicted SNOs for the next 14.0 days since TLE Epoch: 1/26/2017
Index Date (LANDSAT-8) Time (LANDSAT-8) Lat,Lon (LANDSAT-8) SZA (LANDSAT-8 ) Date (METOP-B) Time (METOP-B) Lat,Lon (METOP-B) SZA (METOP-B ) Distance(km) Time Diff (sec)
1 01/29/2017 12:46:42 81.08, 27.39 100.45 01/29/2017 12:45:35 81.09, 27.57 100.44 3.04 67
2 01/29/2017 13:36:08 -81.10,-164.67 79.52 01/29/2017 13:36:15 -81.10,-164.75 79.53 1.39 7
3 02/01/2017 08:20:56 81.08, 93.74 99.64 02/01/2017 08:19:56 81.08, 93.76 99.63 0.30 60
4 02/01/2017 09:10:22 -81.10, -98.30 80.32 02/01/2017 09:10:35 -81.10, -98.19 80.30 2.06 13
5 02/04/2017 03:55:10 81.07, 160.05 98.80 02/04/2017 03:54:17 81.07, 159.93 98.77 2.06 53
6 02/04/2017 04:44:35 -81.11, -31.61 81.12 02/04/2017 04:44:55 -81.11, -31.64 81.12 0.79 20
7 02/06/2017 23:29:22 81.08,-133.32 97.96 02/06/2017 23:28:35 81.09,-133.16 97.96 2.88 47
8 02/07/2017 00:18:48 -81.10, 34.68 82.00 02/07/2017 00:19:15 -81.10, 34.52 82.01 2.81 27
9 02/09/2017 19:03:35 81.09, -66.74 97.09 02/09/2017 19:02:55 81.09, -66.65 97.08 1.60 40




NCC Satellite Simultaneous Nadir Overpasses (SNOs) Prediction Service
